Location: Casilda
(33.0440°S, 61.1680°W)
Time: 10:22:09
(UTC-03:00)

ISS - Pass Details

Date: 15 August 2022
Orbit: 412 x 420 km, 51.6° (Epoch: 13 August)

Event Time Altitude Azimuth Distance (km) Brightness Sun altitude
Rises 19:06:28 0° 350° (N) 2,342 0.4 -6.9°
Reaches altitude 10° 19:09:04 10° 11° (NNE) 1,490 -0.9 -7.5°
Maximum altitude 19:11:17 17° 53° (NE) 1,159 -1.9 -7.9°
Enters shadow 19:13:19 11° 92° (E) 1,452 -1.7 -8.4°
